Hourly Data Report for April 28, 2018

CLYDE RIVER A
NUNAVUT
Current Station Operator: NAVCAN

70°29'09.000" N
68°31'01.000" W
26.50 m
2400804
71090
YCY

Download Data

Hourly Data (April 2018)
Hourly Data Report for April 28, 2018
TIME
LST
Temp Definition
°C
Dew Point Definition
°C
Rel Hum Definition
%
Precip. Amount Definition
mm

Wind Dir Definition
10's deg

Wind Spd Definition
km/h
Visibility Definition
km
Stn Press Definition
kPa
Hmdx Definition


Wind Chill Definition


Weather Definition


00:00 -19.0 -23.3 70 0.0 26 4 16.1 99.03   -22 LegendNANA
01:00 -22.0 -24.6 80 0.0 26 9 16.1 98.98   -29 LegendNANA
02:00 -21.3 -24.5 76 0.0 26 13 16.1 98.93   -30 LegendNANA
03:00 -20.6 -24.3 73 0.0 26 11 16.1 98.88   -28 LegendNANA
04:00 -20.1 -24.7 67 0.0 27 9 16.1 98.84   -27 LegendNANA
05:00 -20.4 -24.8 69 0.0 25 11 16.1 98.83   -28 LegendNANA
06:00 -17.1 -22.4 64 0.0 21 9 16.1 98.85   -23 LegendNANA
07:00 -18.6 -22.9 70 0.0 23 5 16.1 98.88   -23 LegendNANA
08:00 -16.7 -21.8 65 0.0   0 16.1 98.94     LegendNANA
09:00 -12.7 -18.4 63 0.0 20 24 16.1 98.97   -22 LegendNANA
10:00 -12.0 -16.3 71 0.0 21 22 16.1 99.03   -21 Snow
11:00 -12.6 -16.8 71 0.0 24 34 12.9 99.09   -23 LegendNANA
12:00 -12.8 -16.7 73 0.0 24 35 4.8 99.21   -24 Snow
13:00 -12.1 -16.2 72 0.0 22 24 14.5 99.35   -21 LegendNANA
14:00 -11.9 -16.5 69 0.0 25 32 16.1 99.43   -22 Snow
15:00 -11.8 -16.0 71 0.0 24 37 9.7 99.54   -23 Haze
16:00 -12.1 -16.6 70 0.0 24 26 16.1 99.66   -22 Snow
17:00 -13.4 -17.0 75 0.0 19 30 16.1 99.78   -24 LegendNANA
18:00 -13.4 -17.5 72 0.0 23 32 14.5 99.89   -24 LegendNANA
19:00 -11.8 -19.7 53 0.0 27 30 16.1 99.98   -22 LegendNANA
20:00 -15.1 -18.7 75 0.0 20 30 16.1 100.06   -26 LegendNANA
21:00 -15.3 -18.7 76 0.0 21 30 16.1 100.14   -26 LegendNANA
22:00 -14.2 -18.5 71 0.0 21 26 16.1 100.21   -24 LegendNANA
23:00 -14.5 -19.2 68 0.0 22 18 16.1 100.27   -23 LegendNANA

Notes on Data Quality.

Legend

  • E = Estimated
  • M = Missing
  • NA = Not Available*
  • [empty] = Indicates an unobserved value
Date modified: